Caro, MI

10:11 AM EDT on June 23, 2017 (GMT -0400)
Caro

Weather History for KCFS - June, 2014

Change the Weather History Date:

Saturday, June 7, 2014

  Actual Average (KMBS) Record (KMBS)
Temperature  
Mean Temperature 66 °F -  
Max Temperature 84 °F 72 °F 93 °F (2011)
Min Temperature 47 °F 52 °F 46 °F (1998)
Growing Degree Days 16 (Base 50)    
Moisture  
Dew Point 48 °F    
Average Humidity 55    
Maximum Humidity 98    
Minimum Humidity 25    
Precipitation  
Precipitation 0.00 in - - ()
Sea Level Pressure  
Sea Level Pressure 29.98 in    
Wind  
Wind Speed 2 mph (SE)    
Max Wind Speed 9 mph    
Max Gust Speed 16 mph    
Visibility 10 miles    
Events      
Averages and records for this station are not official NWS values.
T = Trace of Precipitation, MM = Missing Value Source: NWS Daily Summary

Daily Weather History Graph

Daily Weather History Graph

Search for Another Location

Airport or City:

Trip Planner

Search our weather history database for the weather conditions in past years. The results will help you decide how hot, cold, wet, or windy it might be!

Date:

Astronomy

Jun. 07, 2014 Rise Set
Actual Time 5:53 AM EDT 9:12 PM EDT
Civil Twilight 5:18 AM EDT 9:47 PM EDT
Nautical Twilight 4:32 AM EDT 10:33 PM EDT
Astronomical Twilight 3:35 AM EDT 11:30 PM EDT
Moon 3:19 PM EDT (6/7) 2:24 AM EDT (6/7)
Length of Visible Light 16h 29m
Length of Day
15h 18m
Waxing Gibbous, 67% of the Moon is Illuminated
Jun 7
Waxing Gibbous
Jun 13
Full
Jun 19
Last Quarter
Jun 27
New
Jul 5
First Quarter

Hourly Weather History & Observations

Time (EDT) Temp. Dew Point Humidity Pressure Visibility Wind Dir Wind Speed Gust Speed Precip Events Conditions
12:15 AM 53.2 °F 48.9 °F 85% 30.02 in 10.0 mi Calm Calm - N/A   Clear
12:35 AM 51.6 °F 49.1 °F 91% 30.01 in 10.0 mi Calm Calm - N/A   Clear
12:54 AM 53.2 °F 48.6 °F 84% 30.01 in 10.0 mi Calm Calm - N/A   Clear
1:15 AM 51.8 °F 47.7 °F 86% 30.01 in 10.0 mi Calm Calm - N/A   Clear
1:34 AM 50.9 °F 48.2 °F 90% 30.01 in 10.0 mi Calm Calm - N/A   Clear
1:55 AM 50.9 °F 48.6 °F 92% 30.00 in 10.0 mi Calm Calm - N/A   Clear
2:15 AM 50.0 °F 47.3 °F 90% 30.02 in 10.0 mi Calm Calm - N/A   Clear
2:34 AM 50.0 °F 47.8 °F 92% 30.02 in 10.0 mi Calm Calm - N/A   Clear
2:55 AM 50.0 °F 47.3 °F 90% 30.02 in 10.0 mi Calm Calm - N/A   Clear
3:15 AM 49.5 °F 47.3 °F 92% 30.02 in 10.0 mi Calm Calm - N/A   Clear
3:34 AM 50.4 °F 48.2 °F 92% 30.03 in 10.0 mi Calm Calm - N/A   Clear
3:55 AM 48.9 °F 46.9 °F 93% 30.03 in 10.0 mi Calm Calm - N/A   Clear
4:15 AM 48.2 °F 46.6 °F 94% 30.02 in 10.0 mi Calm Calm - N/A   Clear
4:34 AM 48.2 °F 46.9 °F 95% 30.02 in 10.0 mi Calm Calm - N/A   Clear
4:55 AM 47.5 °F 46.6 °F 97% 30.02 in 10.0 mi Calm Calm - N/A   Clear
5:14 AM 47.1 °F 46.2 °F 97% 30.02 in 10.0 mi Calm Calm - N/A   Clear
5:35 AM 47.5 °F 46.8 °F 97% 30.01 in 10.0 mi Calm Calm - N/A   Clear
5:55 AM 47.3 °F 46.6 °F 97% 30.00 in 10.0 mi Calm Calm - N/A   Clear
6:14 AM 47.5 °F 46.9 °F 98% 30.02 in 10.0 mi Calm Calm - N/A   Clear
6:35 AM 48.4 °F 47.7 °F 97% 30.03 in 10.0 mi Calm Calm - N/A   Clear
6:55 AM 51.6 °F 51.1 °F 98% 30.05 in 10.0 mi Calm Calm - N/A   Clear
7:15 AM 55.8 °F 54.9 °F 97% 30.05 in 10.0 mi Calm Calm - N/A   Clear
7:35 AM 58.5 °F 56.1 °F 92% 30.07 in 10.0 mi Calm Calm - N/A   Clear
8:15 AM 63.7 °F 55.9 °F 76% 30.06 in 10.0 mi Calm Calm - N/A   Clear
9:15 AM 71.2 °F 55.2 °F 57% 30.06 in 10.0 mi Calm Calm - N/A   Clear
9:35 AM 73.4 °F 54.3 °F 51% 30.06 in 10.0 mi Calm Calm - N/A   Clear
9:54 AM 75.7 °F 53.1 °F 45% 30.05 in 10.0 mi Calm Calm - N/A   Clear
10:15 AM 77.4 °F 52.3 °F 42% 30.04 in 10.0 mi South 3.5 mph - N/A   Clear
10:35 AM 78.4 °F 48.6 °F 35% 30.04 in 10.0 mi SSE 4.6 mph - N/A   Clear
10:54 AM 79.3 °F 48.4 °F 34% 30.02 in 10.0 mi SSE 6.9 mph - N/A   Clear
11:15 AM 80.6 °F 46.8 °F 30% 30.01 in 10.0 mi SE 6.9 mph - N/A   Clear
11:35 AM 81.1 °F 47.1 °F 30% 30.00 in 10.0 mi East 5.8 mph - N/A   Clear
11:55 AM 81.7 °F 46.8 °F 29% 29.99 in 10.0 mi South 8.1 mph - N/A   Clear
12:15 PM 81.7 °F 47.1 °F 30% 30.00 in 10.0 mi South 5.8 mph - N/A   Clear
12:35 PM 82.4 °F 46.0 °F 28% 30.00 in 10.0 mi Calm Calm - N/A   Clear
12:55 PM 82.9 °F 46.4 °F 28% 30.00 in 10.0 mi ESE 5.8 mph - N/A   Clear
1:15 PM 82.8 °F 45.5 °F 27% 30.00 in 10.0 mi SSE 5.8 mph - N/A   Clear
1:34 PM 83.5 °F 44.8 °F 26% 30.00 in 10.0 mi SSE 9.2 mph 16.1 mph N/A   Clear
1:55 PM 83.8 °F 45.5 °F 26% 29.99 in 10.0 mi SE 9.2 mph - N/A   Clear
2:15 PM 82.2 °F 43.2 °F 25% 29.98 in 10.0 mi ESE 9.2 mph - N/A   Clear
2:34 PM 83.8 °F 45.9 °F 26% 29.98 in 10.0 mi South 6.9 mph - N/A   Scattered Clouds
2:55 PM 83.7 °F 45.1 °F 26% 29.97 in 10.0 mi South 4.6 mph - N/A   Scattered Clouds
3:15 PM 84.4 °F 45.0 °F 25% 29.96 in 10.0 mi ESE 9.2 mph - N/A   Scattered Clouds
3:34 PM 83.3 °F 46.8 °F 28% 29.96 in 10.0 mi SE 8.1 mph - N/A   Scattered Clouds
3:55 PM 84.4 °F 46.2 °F 26% 29.95 in 10.0 mi SE 9.2 mph - N/A   Scattered Clouds
4:15 PM 82.9 °F 45.0 °F 26% 29.94 in 10.0 mi SE 5.8 mph - N/A   Scattered Clouds
4:34 PM 84.0 °F 45.0 °F 25% 29.93 in 10.0 mi ESE 5.8 mph - N/A   Clear
4:55 PM 83.3 °F 44.8 °F 26% 29.93 in 10.0 mi SE 9.2 mph - N/A   Clear
5:15 PM 81.9 °F 45.9 °F 28% 29.93 in 10.0 mi SSE 6.9 mph - N/A   Clear
5:35 PM 81.9 °F 45.5 °F 28% 29.93 in 10.0 mi SSE 8.1 mph - N/A   Clear
5:55 PM 83.3 °F 45.9 °F 27% 29.93 in 10.0 mi SE 9.2 mph - N/A   Clear
6:15 PM 82.0 °F 43.9 °F 26% 29.92 in 10.0 mi ESE 3.5 mph - N/A   Clear
6:35 PM 81.1 °F 46.2 °F 29% 29.92 in 10.0 mi South 4.6 mph - N/A   Clear
6:55 PM 81.9 °F 46.0 °F 28% 29.92 in 10.0 mi SE 5.8 mph - N/A   Clear
7:15 PM 80.8 °F 45.9 °F 29% 29.92 in 10.0 mi SSE 4.6 mph - N/A   Clear
7:35 PM 79.2 °F 46.8 °F 32% 29.92 in 10.0 mi SSE 5.8 mph - N/A   Clear
7:55 PM 78.8 °F 48.0 °F 34% 29.91 in 10.0 mi SSE 4.6 mph - N/A   Clear
8:15 PM 76.3 °F 47.3 °F 36% 29.91 in 10.0 mi SSE 5.8 mph - N/A   Clear
8:35 PM 74.5 °F 47.8 °F 39% 29.91 in 10.0 mi SSE 3.5 mph - N/A   Clear
8:54 PM 72.0 °F 49.5 °F 45% 29.91 in 10.0 mi SE 3.5 mph - N/A   Clear
9:15 PM 70.2 °F 48.7 °F 46% 29.90 in 10.0 mi SE 4.6 mph - N/A   Clear
9:35 PM 68.9 °F 48.6 °F 48% 29.90 in 10.0 mi SE 4.6 mph - N/A   Clear
9:54 PM 68.5 °F 48.6 °F 49% 29.90 in 10.0 mi Calm Calm - N/A   Clear
10:15 PM 66.4 °F 48.6 °F 53% 29.90 in 10.0 mi Calm Calm - N/A   Clear
10:35 PM 66.6 °F 48.2 °F 52% 29.91 in 10.0 mi SE 3.5 mph - N/A   Clear
10:54 PM 67.5 °F 47.3 °F 48% 29.91 in 10.0 mi SE 3.5 mph - N/A   Clear
11:15 PM 66.4 °F 47.7 °F 51% 29.91 in 10.0 mi ESE 3.5 mph - N/A   Clear
11:35 PM 64.4 °F 49.6 °F 59% 29.90 in 10.0 mi Calm Calm - N/A   Clear
11:54 PM 63.3 °F 50.7 °F 63% 29.90 in 10.0 mi Calm Calm - N/A   Clear